星链-2034 (STARLINK-2034 )

导读 | 星芒AI

STARLINK-2034 是 SpaceX 星链计划中的一颗低轨通信卫星,旨在为全球用户提供高速互联网服务。该卫星采用先进推进和通信技术,具备高带宽与低延迟特性。作为星链第二代卫星群的一部分,STARLINK-2034 优化了轨道部署与能源效率,增强了网络覆盖能力。其发射进一步推动了 SpaceX 在全球卫星互联网市场的布局,助力偏远地区实现数字化连接。

基本信息
目录编号:
47352
目录名称:
STARLINK-2034
国际标识:
2021-005D
轨道中心:
EARTH
卫星名称:
星链-2034
卫星全名:
星链-2034 (STARLINK-2034 )
卫星状态:
在轨 (已飞行1743 天)
发射日期:
2021-01-20 UTC
国别 :
美国 (US)
星等 :
--
轨道信息
数据来源 国际轨道数据
星历时间: 2025-10-29T15:11:45+0800
11小时前
查看轨道信息
半长轴: 6925.324km
偏心率: 0.0001452
轨道倾角: 53.055°
近地点辐角 89.050°
升交点赤经 291.453°
平近点角 271.065°
近地点: 546.183km
远地点: 548.195km
周期: 95.592分钟
每日圈数: 15.064081
详细信息
固有亮度:
5
最大亮度:
2.5
卫星平台:
Starlink V1.0
覆盖范围:
全球
运营商:
太空探索技术公司
运营商所在国:
美国
制造商(研发单位):
太空探索技术公司
制造商所在国:
美国
使用方式:
暂无
卫星简介
星链(Starlink)计划是由太空探索技术公司(SpaceX)提出的一个巨型低轨卫星互联网星座项目,计划在2019年至2024年间在太空搭建由约1.2万颗卫星组成的“星链”网络,其中1584颗将部署在地球上空550千米处的近地轨道,并从2020年开始工作。该卫星仍在工作。
2D轨道图
3D轨道图
轨道高度分析图
轨道倾角分析图
轨道综合分析图
查看轨道综合分析图